KF0EZB Weather Reports


Display with metric or nautical units.
time (UTC)temp
F
wind
direction
speed
MPH
gust
MPH
rain 1hr
in
rain 24hr
in
rain mn
in
humidity
%
barometer
mb
20260508212919 79 56 1.0 3.0 0.00 0.00 0.00 33 1009.6
20260508212417 77 69 5.0 9.0 0.00 0.00 0.00 33 1009.5
20260508211912 77 314 2.0 7.0 0.00 0.00 0.00 32 1009.6
20260508211408 77 272 3.0 5.0 0.00 0.00 0.00 33 1009.4
20260508210906 78 108 4.0 9.0 0.00 0.00 0.00 33 1009.5
20260508210402 77 95 1.0 5.0 0.00 0.00 0.00 32 1009.5
20260508205858 78 158 0.0 3.0 0.00 0.00 0.00 33 1009.5
20260508205355 77 122 4.0 7.0 0.00 0.00 0.00 33 1009.5
20260508204851 77 119 1.0 5.0 0.00 0.00 0.00 33 1009.5
20260508204349 78 123 1.0 6.0 0.00 0.00 0.00 34 1009.6
20260508203844 77 143 1.0 3.0 0.00 0.00 0.00 33 1009.4
20260508203341 77 60 4.0 6.0 0.00 0.00 0.00 32 1009.6
20260508202836 78 308 4.0 7.0 0.00 0.00 0.00 32 1009.7
20260508202334 75 168 0.0 1.0 0.00 0.00 0.00 35 1009.6
20260508201831 76 9 3.0 5.0 0.00 0.00 0.00 33 1009.6
20260508201328 77 171 1.0 3.0 0.00 0.00 0.00 33 1009.6
20260508200824 76 156 1.0 5.0 0.00 0.00 0.00 34 1009.8
20260508200321 76 120 1.0 2.0 0.00 0.00 0.00 34 1009.9
20260508195817 76 101 0.0 3.0 0.00 0.00 0.00 36 1009.7
20260508195314 75 117 0.0 3.0 0.00 0.00 0.00 36 1009.7
20260508194810 74 126 1.0 3.0 0.00 0.00 0.00 36 1009.9
20260508194308 75 106 0.0 6.0 0.00 0.00 0.00 36 1009.9
20260508193805 74 117 0.0 3.0 0.00 0.00 0.00 36 1009.9
20260508193301 75 308 3.0 6.0 0.00 0.00 0.00 34 1009.9
20260508192757 76 103 1.0 6.0 0.00 0.00 0.00 34 1009.9
20260508192254 77 62 2.0 8.0 0.00 0.00 0.00 32 1009.6
20260508191752 80 279 2.0 5.0 0.00 0.00 0.00 31 1009.8
20260508191249 79 202 1.0 5.0 0.00 0.00 0.00 33 1009.6
20260508190746 79 102 1.0 3.0 0.00 0.00 0.00 33 1009.3
20260508190242 78 313 5.0 9.0 0.00 0.00 0.00 34 1009.3
20260508185738 79 174 1.0 8.0 0.00 0.00 0.00 34 1009.5
20260508185236 77 233 3.0 8.0 0.00 0.00 0.00 34 1009.4
20260508184733 77 328 4.0 7.0 0.00 0.00 0.00 34 1009.3
20260508184230 77 278 6.0 7.0 0.00 0.00 0.00 33 1009.4
20260508183727 78 359 3.0 9.0 0.00 0.00 0.00 34 1009.5
20260508183223 78 124 1.0 2.0 0.00 0.00 0.00 34 1009.4
20260508182719 77 301 2.0 5.0 0.00 0.00 0.00 36 1009.3
20260508182216 77 84 3.0 5.0 0.00 0.00 0.00 35 1009.3
20260508181712 76 330 2.0 6.0 0.00 0.00 0.00 35 1009.5
20260508181209 76 283 3.0 6.0 0.00 0.00 0.00 36 1009.7
20260508180706 76 170 3.0 5.0 0.00 0.00 0.00 37 1009.5
20260508180203 76 344 2.0 5.0 0.00 0.00 0.00 36 1009.7
20260508175659 77 133 1.0 3.0 0.00 0.00 0.00 37 1009.4
20260508175156 77 323 1.0 6.0 0.00 0.00 0.00 35 1009.7
20260508174654 76 301 6.0 9.0 0.00 0.00 0.00 37 1009.5
20260508174150 77 300 6.0 11.0 0.00 0.00 0.00 36 1009.6
20260508173647 78 176 2.0 3.0 0.00 0.00 0.00 37 1009.7
20260508173143 77 110 1.0 10.0 0.00 0.00 0.00 38 1009.7
20260508172640 76 304 4.0 7.0 0.00 0.00 0.00 39 1009.8
20260508172137 75 172 0.0 9.0 0.00 0.00 0.00 43 1009.8
20260508171634 76 121 2.0 8.0 0.00 0.00 0.00 42 1009.8
20260508171130 73 305 2.0 8.0 0.00 0.00 0.00 42 1009.6
20260508170627 74 326 6.0 13.0 0.00 0.00 0.00 43 1009.6
20260508170125 74 348 1.0 9.0 0.00 0.00 0.00 43 1010.0
20260508165622 75 298 5.0 7.0 0.00 0.00 0.00 42 1009.7
20260508165119 75 295 2.0 11.0 0.00 0.00 0.00 42 1009.7
20260508164615 78 157 1.0 7.0 0.00 0.00 0.00 38 1009.9
20260508164112 78 196 3.0 5.0 0.00 0.00 0.00 39 1009.7
20260508163609 77 160 1.0 5.0 0.00 0.00 0.00 40 1009.7
20260508163106 76 188 1.0 5.0 0.00 0.00 0.00 40 1010.2
20260508162603 73 238 1.0 5.0 0.00 0.00 0.00 41 1009.9
20260508162100 73 324 5.0 11.0 0.00 0.00 0.00 42 1009.8
20260508161557 75 293 4.0 8.0 0.00 0.00 0.00 42 1009.7
20260508161054 74 251 2.0 8.0 0.00 0.00 0.00 44 1009.9
20260508160552 72 148 1.0 1.0 0.00 0.00 0.00 45 1009.6
20260508160049 72 290 3.0 5.0 0.00 0.00 0.00 46 1009.7
20260508155546 71 303 4.0 8.0 0.00 0.00 0.00 47 1009.7
20260508155043 70 288 4.0 8.0 0.00 0.00 0.00 49 1009.9
20260508154540 68 308 4.0 8.0 0.00 0.00 0.00 51 1010.0
20260508154037 68 311 6.0 7.0 0.00 0.00 0.00 52 1009.8
20260508153534 67 304 2.0 5.0 0.00 0.00 0.00 53 1009.8
20260508153030 66 294 6.0 8.0 0.00 0.00 0.00 53 1009.9
20260508152527 66 297 0.0 6.0 0.00 0.00 0.00 54 1009.9
20260508152023 66 307 4.0 5.0 0.00 0.00 0.00 54 1009.9
20260508151520 65 288 2.0 2.0 0.00 0.00 0.00 55 1009.7
20260508151016 65 321 0.0 6.0 0.00 0.00 0.00 54 1009.8
20260508150514 64 311 4.0 7.0 0.00 0.00 0.00 54 1009.6
20260508150009 65 210 1.0 2.0 0.00 0.00 0.00 55 1009.6
20260508145506 65 199 1.0 2.0 0.00 0.00 0.00 54 1009.8
20260508145002 64 230 2.0 2.0 0.00 0.00 0.00 54 1009.7
20260508144500 64 278 2.0 2.0 0.00 0.00 0.00 54 1009.4
20260508143958 63 314 3.0 8.0 0.00 0.00 0.00 55 1009.6
20260508143455 62 288 4.0 6.0 0.00 0.00 0.00 58 1009.7
20260508142951 62 269 3.0 3.0 0.00 0.00 0.00 58 1009.4
20260508142449 61 232 1.0 3.0 0.00 0.00 0.00 58 1009.1
20260508141944 61 226 1.0 3.0 0.00 0.00 0.00 58 1009.5
20260508141442 61 236 0.0 5.0 0.00 0.00 0.00 58 1009.5
20260508140939 61 273 1.0 3.0 0.00 0.00 0.00 58 1009.6
20260508140436 60 186 1.0 2.0 0.00 0.00 0.00 59 1009.6
20260508135931 60 186 1.0 2.0 0.00 0.00 0.00 58 1009.1
20260508135428 60 174 0.0 1.0 0.00 0.00 0.00 58 1009.2
20260508134925 59 212 0.0 2.0 0.00 0.00 0.00 61 1009.5
20260508134421 59 175 0.0 1.0 0.00 0.00 0.00 62 1009.3
20260508133918 58 200 1.0 2.0 0.00 0.00 0.00 62 1009.3
20260508133416 57 179 1.0 2.0 0.00 0.00 0.00 63 1009.4
20260508132913 57 167 1.0 1.0 0.00 0.00 0.00 63 1009.4
20260508132411 57 168 0.0 1.0 0.00 0.00 0.00 63 1009.2
20260508131907 57 170 0.0 1.0 0.00 0.00 0.00 63 1009.5
20260508131403 57 172 0.0 1.0 0.00 0.00 0.00 63 1009.3
20260508130900 57 173 0.0 2.0 0.00 0.00 0.00 62 1009.3
20260508130356 57 171 0.0 1.0 0.00 0.00 0.00 62 1009.4
20260508125852 57 173 0.0 1.0 0.00 0.00 0.00 62 1009.4
20260508125348 57 188 1.0 3.0 0.00 0.00 0.00 62 1009.2
20260508124846 56 221 0.0 2.0 0.00 0.00 0.00 62 1009.3
20260508124343 57 207 0.0 1.0 0.00 0.00 0.00 62 1009.2
20260508123842 57 167 0.0 0.0 0.00 0.00 0.00 62 1009.3
20260508123340 56 185 1.0 1.0 0.00 0.00 0.00 61 1009.1
20260508122836 56 168 1.0 1.0 0.00 0.00 0.00 62 1008.8
20260508122333 56 168 1.0 2.0 0.00 0.00 0.00 62 1008.5
20260508121830 56 168 0.0 1.0 0.00 0.00 0.00 62 1008.5
20260508121328 55 165 1.0 1.0 0.00 0.00 0.00 63 1008.6
20260508120826 55 173 1.0 1.0 0.00 0.00 0.00 62 1008.7
20260508120323 55 203 0.0 3.0 0.00 0.00 0.00 63 1008.8
20260508115821 55 169 0.0 1.0 0.00 0.00 0.00 63 1008.9
20260508115318 55 171 0.0 1.0 0.00 0.00 0.00 63 1009.1
20260508114814 55 183 2.0 2.0 0.00 0.00 0.00 62 1008.8
20260508114312 55 175 1.0 2.0 0.00 0.00 0.00 62 1009.0
20260508113808 55 169 0.0 1.0 0.00 0.00 0.00 61 1009.0
20260508113306 55 168 1.0 2.0 0.00 0.00 0.00 61 1009.1
20260508112802 55 170 1.0 1.0 0.00 0.00 0.00 61 1009.1
20260508112300 56 170 0.0 0.0 0.00 0.00 0.00 61 1009.2
20260508111755 56 176 0.0 0.0 0.00 0.00 0.00 60 1009.3
20260508111254 56 183 0.0 3.0 0.00 0.00 0.00 59 1009.0
20260508110751 57 190 1.0 2.0 0.00 0.00 0.00 58 1009.1
20260508110248 57 233 1.0 3.0 0.00 0.00 0.00 57 1009.2
20260508105748 57 278 3.0 5.0 0.00 0.00 0.00 57 1009.3
20260508105244 57 281 5.0 7.0 0.00 0.00 0.00 58 1009.3
20260508104742 57 294 5.0 7.0 0.00 0.00 0.00 58 1009.3
20260508104239 57 223 1.0 6.0 0.00 0.00 0.00 58 1009.4
20260508103736 58 289 5.0 6.0 0.00 0.00 0.00 57 1009.7
20260508103233 58 280 6.0 9.0 0.00 0.00 0.00 58 1009.3
20260508102730 58 285 5.0 7.0 0.00 0.00 0.00 57 1009.6
20260508102228 59 300 5.0 8.0 0.00 0.00 0.00 57 1009.8
20260508101725 59 282 5.0 7.0 0.00 0.00 0.00 57 1009.4
20260508101223 60 304 4.0 7.0 0.00 0.00 0.00 55 1009.6
20260508100720 60 246 2.0 5.0 0.00 0.00 0.00 54 1009.3
20260508100218 60 258 4.0 9.0 0.00 0.00 0.00 54 1009.1
20260508095714 60 276 5.0 8.0 0.00 0.00 0.00 54 1009.0
20260508095212 61 276 3.0 5.0 0.00 0.00 0.00 54 1008.9
20260508094708 61 190 3.0 7.0 0.00 0.00 0.00 53 1008.8
20260508094205 61 309 4.0 6.0 0.00 0.00 0.00 53 1008.5
20260508093702 61 181 3.0 5.0 0.00 0.00 0.00 52 1008.7
20260508093200 62 187 2.0 6.0 0.00 0.00 0.00 52 1008.5
20260508092657 62 240 2.0 9.0 0.00 0.00 0.00 52 1008.6
20260508092155 62 205 0.0 9.0 0.00 0.00 0.00 51 1008.7
20260508091652 62 258 2.0 8.0 0.00 0.00 0.00 51 1008.6
20260508091149 62 205 2.0 7.0 0.00 0.00 0.00 51 1008.6
20260508090647 61 240 1.0 11.0 0.00 0.00 0.00 51 1008.6
20260508090144 61 266 5.0 6.0 0.00 0.00 0.00 51 1008.3
20260508085640 61 242 2.0 9.0 0.00 0.00 0.00 51 1008.7
20260508085138 61 256 3.0 5.0 0.00 0.00 0.00 50 1008.8
20260508084634 61 266 2.0 5.0 0.00 0.00 0.00 50 1008.7
20260508084131 61 210 1.0 5.0 0.00 0.00 0.00 49 1008.6
20260508083628 61 208 1.0 8.0 0.00 0.00 0.00 49 1008.9
20260508083126 61 251 2.0 8.0 0.00 0.00 0.00 48 1008.5
20260508082621 61 186 1.0 8.0 0.00 0.00 0.00 48 1008.5
20260508082119 60 200 3.0 5.0 0.00 0.00 0.00 49 1008.8
20260508081616 60 224 4.0 7.0 0.00 0.00 0.00 48 1008.7
20260508081112 60 196 1.0 3.0 0.00 0.00 0.00 48 1008.7
20260508080610 60 167 1.0 7.0 0.00 0.00 0.00 47 1008.9
20260508080108 60 229 1.0 3.0 0.00 0.00 0.00 46 1008.9
20260508075603 60 192 1.0 2.0 0.00 0.00 0.00 46 1008.9
20260508075101 60 195 2.0 6.0 0.00 0.00 0.00 46 1008.9
20260508074559 59 220 1.0 5.0 0.00 0.00 0.00 47 1009.0
20260508074055 59 203 0.0 2.0 0.00 0.00 0.00 47 1008.9
20260508073553 59 274 1.0 3.0 0.00 0.00 0.00 47 1009.2
20260508073050 59 234 3.0 5.0 0.00 0.00 0.00 47 1009.1
20260508072545 59 188 1.0 3.0 0.00 0.00 0.00 48 1009.1
20260508072043 59 189 0.0 5.0 0.00 0.00 0.00 48 1009.2
20260508071541 59 341 0.0 5.0 0.00 0.00 0.00 49 1009.1
20260508071038 59 206 2.0 5.0 0.00 0.00 0.00 49 1009.2
20260508070536 59 236 3.0 3.0 0.00 0.00 0.00 50 1009.2
20260508070034 59 187 2.0 2.0 0.00 0.00 0.00 50 1009.2
20260508065531 59 217 1.0 2.0 0.00 0.00 0.00 49 1009.1
20260508065029 59 175 1.0 2.0 0.00 0.00 0.00 49 1009.4
20260508064527 59 204 2.0 6.0 0.00 0.00 0.00 49 1009.1
20260508064024 59 187 0.0 6.0 0.00 0.00 0.00 48 1008.9
20260508063521 59 235 3.0 3.0 0.00 0.00 0.00 48 1009.2
20260508063019 60 170 1.0 1.0 0.00 0.00 0.00 48 1008.9
20260508062517 60 195 1.0 3.0 0.00 0.00 0.00 47 1009.1
20260508062013 60 283 1.0 3.0 0.00 0.00 0.00 46 1009.1
20260508061512 60 228 1.0 3.0 0.00 0.00 0.00 45 1009.2
20260508061008 61 180 0.0 2.0 0.00 0.00 0.00 45 1009.2
20260508060505 61 166 1.0 5.0 0.00 0.00 0.00 45 1009.4
20260508060002 61 278 4.0 6.0 0.00 0.00 0.00 44 1009.1
20260508055458 61 246 3.0 5.0 0.00 0.00 0.00 44 1009.4
20260508054954 61 190 1.0 3.0 0.00 0.00 0.00 44 1009.3
20260508054451 61 179 0.0 5.0 0.00 0.00 0.00 44 1009.2
20260508053948 61 184 2.0 5.0 0.00 0.00 0.00 44 1009.3
20260508053445 61 208 2.0 3.0 0.00 0.00 0.00 44 1009.5
20260508052943 61 178 1.0 2.0 0.00 0.00 0.00 44 1009.7
20260508052440 61 239 4.0 6.0 0.00 0.00 0.00 43 1009.6
20260508051937 61 237 2.0 5.0 0.00 0.00 0.00 43 1009.7
20260508051432 61 173 1.0 5.0 0.00 0.00 0.00 42 1009.6
20260508050928 62 196 1.0 3.0 0.00 0.00 0.00 41 1009.3
20260508050425 62 160 1.0 5.0 0.00 0.00 0.00 41 1009.6
20260508045921 61 189 4.0 7.0 0.00 0.00 0.00 41 1009.7
20260508045419 61 278 1.0 5.0 0.00 0.00 0.00 40 1009.6
20260508044916 62 206 1.0 5.0 0.00 0.00 0.00 39 1009.7
20260508044414 62 174 1.0 2.0 0.00 0.00 0.00 39 1009.6
20260508043909 62 223 2.0 3.0 0.00 0.00 0.00 40 1009.6
20260508043406 62 197 0.0 2.0 0.00 0.00 0.00 40 1009.5
20260508042902 62 177 0.0 2.0 0.00 0.00 0.00 39 1009.7
20260508042401 62 227 3.0 5.0 0.00 0.00 0.00 39 1009.5
20260508041857 63 216 1.0 5.0 0.00 0.00 0.00 39 1009.7
20260508041353 63 220 3.0 5.0 0.00 0.00 0.00 39 1009.8
20260508040850 63 189 2.0 5.0 0.00 0.00 0.00 39 1009.9
20260508040347 63 221 0.0 1.0 0.00 0.00 0.00 39 1009.8
20260508035845 63 177 1.0 2.0 0.00 0.00 0.00 39 1009.9
20260508035342 63 211 1.0 3.0 0.00 0.00 0.00 39 1009.9
20260508034839 63 203 1.0 5.0 0.00 0.00 0.00 40 1009.7
20260508034336 63 219 3.0 5.0 0.00 0.00 0.00 40 1009.9
20260508033832 63 180 0.0 2.0 0.00 0.00 0.00 41 1009.9
20260508033331 64 188 1.0 2.0 0.00 0.00 0.00 40 1009.5
20260508032828 64 193 2.0 5.0 0.00 0.00 0.00 40 1009.8
20260508032325 64 200 2.0 5.0 0.00 0.00 0.00 39 1010.0
20260508031822 64 213 1.0 3.0 0.00 0.00 0.00 39 1010.0
20260508031319 64 173 1.0 2.0 0.00 0.00 0.00 39 1010.0
20260508030815 64 173 1.0 3.0 0.00 0.00 0.00 39 1009.9
20260508030313 65 187 1.0 5.0 0.00 0.00 0.00 39 1009.9
20260508025809 65 215 1.0 2.0 0.00 0.00 0.00 38 1009.7
20260508025306 65 177 1.0 2.0 0.00 0.00 0.00 39 1009.8
20260508024802 64 195 1.0 6.0 0.00 0.00 0.00 39 1009.6
20260508024259 65 179 1.0 2.0 0.00 0.00 0.00 39 1009.5
20260508023756 65 167 0.0 2.0 0.00 0.00 0.00 39 1009.4
20260508023253 65 161 0.0 1.0 0.00 0.00 0.00 38 1009.5
20260508022749 65 160 0.0 0.0 0.00 0.00 0.00 37 1009.6
20260508022246 65 160 0.0 0.0 0.00 0.00 0.00 38 1009.4
20260508021743 66 160 0.0 0.0 0.00 0.00 0.00 38 1009.3
20260508021238 66 161 0.0 0.0 0.00 0.00 0.00 37 1009.4
20260508020735 66 165 0.0 1.0 0.00 0.00 0.00 37 1009.0
20260508020233 67 159 0.0 1.0 0.00 0.00 0.00 37 1009.2
20260508015729 67 160 0.0 1.0 0.00 0.00 0.00 35 1009.2
20260508015227 68 161 0.0 0.0 0.00 0.00 0.00 36 1009.3
20260508014724 68 162 0.0 0.0 0.00 0.00 0.00 35 1009.1
20260508014220 69 162 0.0 0.0 0.00 0.00 0.00 34 1009.1
20260508013716 70 162 0.0 0.0 0.00 0.00 0.00 33 1009.0
20260508013212 71 163 0.0 0.0 0.00 0.00 0.00 32 1009.1
20260508012711 71 161 0.0 1.0 0.00 0.00 0.00 31 1009.0
20260508012207 71 159 0.0 1.0 0.00 0.00 0.00 31 1009.0
20260508011705 72 158 0.0 0.0 0.00 0.00 0.00 30 1009.0
20260508011203 73 160 0.0 0.0 0.00 0.00 0.00 29 1008.9
20260508010659 74 162 0.0 1.0 0.00 0.00 0.00 28 1008.8
20260508010157 75 160 0.0 0.0 0.00 0.00 0.00 27 1008.9
20260508005654 75 164 1.0 1.0 0.00 0.00 0.00 27 1008.8
20260508005150 76 166 0.0 2.0 0.00 0.00 0.00 26 1008.8
20260508004646 77 173 0.0 1.0 0.00 0.00 0.00 26 1008.8
20260508004143 77 177 0.0 1.0 0.00 0.00 0.00 25 1009.0
20260508003639 78 166 0.0 2.0 0.00 0.00 0.00 24 1008.9
20260508003137 78 233 3.0 3.0 0.00 0.00 0.00 23 1008.9
20260508002633 78 217 2.0 9.0 0.00 0.00 0.00 24 1008.9
20260508002131 79 256 3.0 3.0 0.00 0.00 0.00 23 1008.8
20260508001626 79 180 1.0 6.0 0.00 0.00 0.00 23 1008.9
20260508001122 80 221 3.0 3.0 0.00 0.00 0.00 23 1008.9
20260508000618 79 207 1.0 5.0 0.00 0.00 0.00 23 1008.9
20260508000116 80 309 2.0 7.0 0.00 0.00 0.00 23 1008.7
20260507235613 79 203 2.0 6.0 0.00 0.00 0.00 23 1009.1
20260507235110 80 185 3.0 7.0 0.00 0.00 0.00 22 1009.0
20260507234606 80 186 2.0 7.0 0.00 0.00 0.00 23 1009.0
20260507234103 80 311 3.0 9.0 0.00 0.00 0.00 22 1009.2
20260507233600 80 264 3.0 9.0 0.00 0.00 0.00 22 1009.1
20260507233059 80 256 4.0 6.0 0.00 0.00 0.00 22 1009.0
20260507232554 80 287 1.0 3.0 0.00 0.00 0.00 23 1009.1
20260507232052 80 285 5.0 7.0 0.00 0.00 0.00 21 1009.0
20260507231548 80 305 2.0 5.0 0.00 0.00 0.00 22 1009.1
20260507231045 81 215 2.0 5.0 0.00 0.00 0.00 22 1009.1
20260507230542 81 250 4.0 6.0 0.00 0.00 0.00 22 1009.0
20260507230038 80 295 2.0 8.0 0.00 0.00 0.00 22 1009.0
20260507225533 81 315 2.0 7.0 0.00 0.00 0.00 22 1009.2
20260507225030 80 226 2.0 5.0 0.00 0.00 0.00 23 1009.2
20260507224526 80 319 5.0 7.0 0.00 0.00 0.00 22 1009.3
20260507224022 80 264 5.0 7.0 0.00 0.00 0.00 22 1009.2
20260507223519 80 309 4.0 9.0 0.00 0.00 0.00 22 1009.1
20260507223016 80 193 4.0 8.0 0.00 0.00 0.00 21 1009.0
20260507222513 80 349 7.0 11.0 0.00 0.00 0.00 21 1009.4
20260507222009 81 201 2.0 5.0 0.00 0.00 0.00 22 1009.2
20260507221506 80 287 5.0 8.0 0.00 0.00 0.00 22 1009.5
20260507221003 80 260 4.0 9.0 0.00 0.00 0.00 22 1009.4
20260507220500 80 123 2.0 7.0 0.00 0.00 0.00 22 1009.5
20260507215956 80 315 4.0 8.0 0.00 0.00 0.00 22 1009.5
20260507215453 80 211 3.0 10.0 0.00 0.00 0.00 22 1009.6
20260507214951 80 277 7.0 9.0 0.00 0.00 0.00 22 1009.6
20260507214448 81 196 3.0 9.0 0.00 0.00 0.00 23 1009.7
20260507213943 80 290 5.0 7.0 0.00 0.00 0.00 22 1009.8
20260507213440 80 218 3.0 8.0 0.00 0.00 0.00 23 1009.8